This demonstration page uses our WeatherBlox Daily Observations layout. Learn more.

Left ArrowRight Arrow

Hourly Observations for July 14, 2019

Temp ( °F °C ) Dew Point ( °F °C ) Humidity (%) Winds ( mph kmh ) Pressure ( in mb ) Visibility ( mi km ) Precip ( " mm )
12:53 am 00:53 Clear 69 20.6 67 19.4 93 93 N N/A 30.08 1019 10 16 N/A
1:53 am 01:53 Clear 68 20 66 18.9 93 93 N N/A 30.08 1019 10 16 N/A
2:53 am 02:53 Clear 67 19.4 66 18.9 97 97 N N/A 30.08 1019 10 16 N/A
3:53 am 03:53 Clear 66 18.9 65 18.3 96 96 N N/A 30.07 1018 10 16 N/A
4:53 am 04:53 Clear 65 18.3 64 17.8 97 97 N N/A 30.07 1018 9 14 N/A
5:53 am 05:53 Clear 64 17.8 63 17.2 96 96 N N/A 30.08 1019 9 14 N/A
6:53 am 06:53 Sunny 64 17.8 63 17.2 96 96 W 5 7 30.11 1020 10 16 N/A
7:53 am 07:53 Sunny 70 21.1 66 18.9 87 87 N N/A 30.14 1021 10 16 N/A
8:53 am 08:53 Sunny 73 22.8 66 18.9 79 79 WSW 5 7 30.14 1021 10 16 N/A
9:53 am 09:53 Sunny 78 25.6 68 20 71 71 VRB 3 6 30.14 1021 10 16 N/A
10:53 am 10:53 Sunny 84 28.9 68 20 59 59 VRB 3 6 30.12 1020 10 16 N/A
11:53 am 11:53 Sunny 86 30 69 20.6 57 57 VRB 3 6 30.13 1020 10 16 N/A
12:53 pm 12:53 Sunny 88 31.1 68 20 52 52 W 6 9 30.14 1021 10 16 N/A
1:53 pm 13:53 Sunny 89 31.7 68 20 50 50 SW 6 9 30.12 1020 10 16 N/A
2:53 pm 14:53 Mostly Sunny 89 31.7 67 19.4 48 48 N N/A 30.11 1020 10 16 N/A
3:53 pm 15:53 Partly Cloudy 91 32.8 66 18.9 44 44 VRB 6 9 30.10 1019 10 16 N/A
4:53 pm 16:53 Sunny 91 32.8 65 18.3 42 42 W 8 13 30.08 1019 10 16 N/A
5:53 pm 17:53 Sunny 91 32.8 66 18.9 44 44 W 6 9 30.06 1018 10 16 N/A
6:53 pm 18:53 Sunny 90 32.2 62 16.7 39 39 W 9 15 30.06 1018 10 16 N/A
7:53 pm 19:53 Sunny 88 31.1 64 17.8 45 45 WSW 7 11 30.07 1018 10 16 N/A
8:53 pm 20:53 Sunny 81 27.2 66 18.9 61 61 NW 7 11 30.11 1020 10 16 N/A
9:53 pm 21:53 Clear 79 26.1 65 18.3 62 62 NNW 9 15 30.11 1020 10 16 N/A
10:53 pm 22:53 Clear 74 23.3 65 18.3 74 74 N N/A 30.11 1020 10 16 N/A
11:53 pm 23:53 Clear 70 21.1 67 19.4 90 90 N N/A 30.11 1020 10 16 N/A

Powered by AerisWeather